Weather History for Duluth, MN

Change the Weather History Date:

Monday, August 25, 2014

  Actual Average Record
Temperature  
Mean Temperature 67 °F 63 °F  
Max Temperature 76 °F 73 °F 95 °F (1888)
Min Temperature 57 °F 53 °F 40 °F (1950)
Degree Days  
Heating Degree Days 0 4  
Month to date heating degree days 20 60  
Since 1 June heating degree days 222 302  
Since 1 July heating degree days 60 123  
Cooling Degree Days 2 2  
Month to date cooling degree days 38 60  
Year to date cooling degree days 170 184  
Since 1 June cooling degree days 152 180  
Growing Degree Days 16 (Base 50)    
Moisture  
Dew Point 57 °F    
Average Humidity 73    
Maximum Humidity 100    
Minimum Humidity 46    
Precipitation  
Precipitation T in 0.12 in 1.68 in (1995)
Month to date precipitation 4.04 2.95  
Year to date precipitation 24.36 19.95  
Snow  
Snow 0.00 in 0.00 in 0.00 in (2002)
Month to date snowfall 0.0 0.0  
Since 1 June snowfall T 0.0  
Since 1 July snowfall 0.0 0.0  
Snow Depth 0.00 in    
Sea Level Pressure  
Sea Level Pressure 29.90 in    
Wind  
Wind Speed 13 mph (WSW)    
Max Wind Speed 29 mph    
Max Gust Speed 38 mph    
Visibility 7 miles    
Events Fog    
T = Trace of Precipitation, MM = Missing Value Source: NWS Daily Summary

Daily Weather History Graph

Daily Weather History Graph

Search for Another Location

Airport:

Trip Planner

Search our weather history database for the weather conditions in past years. The results will help you decide how hot, cold, wet, or windy it might be!

Date:

Astronomy

Aug. 25, 2014 Rise Set
Actual Time 6:19 AM CDT 8:01 PM CDT
Civil Twilight 5:47 AM CDT 8:33 PM CDT
Nautical Twilight 5:07 AM CDT 9:12 PM CDT
Astronomical Twilight 4:25 AM CDT 9:54 PM CDT
Moon 6:28 AM CDT (8/25) 7:46 PM CDT (8/25)
Length of Visible Light 14h 46m
Length of Day
13h 42m
New Moon, 0% of the Moon is Illuminated
Aug 25
New Moon
Sep 2
First Quarter
Sep 8
Full
Sep 15
Last Quarter
Sep 24
New

Hourly Weather History & Observations

Time (CDT) Temp. Dew Point Humidity Pressure Visibility Wind Dir Wind Speed Gust Speed Precip Events Conditions
12:26 AM 64.9 °F 63.0 °F 93% 29.87 in 0.2 mi ESE 3.5 mph - N/A Fog Fog
12:51 AM 64.4 °F 62.6 °F 94% 29.87 in 0.5 mi Calm Calm - N/A Fog Fog
12:55 AM 64.9 °F 63.0 °F 93% 29.87 in 0.5 mi SW 3.5 mph - N/A Fog Fog
1:13 AM 64.9 °F 63.0 °F 93% 29.86 in 0.8 mi Calm Calm - N/A   Mostly Cloudy
1:55 AM 63.0 °F 62.1 °F 97% 29.86 in 4.0 mi Calm Calm - N/A   Mostly Cloudy
2:55 AM 63.0 °F 61.0 °F 93% 29.86 in 5.0 mi Calm Calm - N/A Fog Patches of Fog
3:55 AM 62.6 °F 60.8 °F 94% 29.89 in 7.0 mi SSW 4.6 mph - N/A   Clear
4:43 AM 63.0 °F 60.1 °F 90% 29.88 in 6.0 mi Calm Calm - N/A Fog Patches of Fog
4:50 AM 62.6 °F 60.8 °F 94% 29.88 in 6.0 mi Calm Calm - N/A Fog Patches of Fog
4:55 AM 62.1 °F 60.1 °F 93% 29.87 in 6.0 mi Calm Calm - N/A Fog Patches of Fog
5:10 AM 62.1 °F 59.0 °F 90% 29.87 in 1.0 mi Calm Calm - N/A   Clear
5:55 AM 59.0 °F 57.0 °F 93% 29.87 in 5.0 mi Calm Calm - N/A Fog Patches of Fog
6:55 AM 59.0 °F 57.2 °F 94% 29.87 in 7.0 mi ESE 6.9 mph - N/A   Partly Cloudy
7:35 AM 62.1 °F 60.1 °F 93% 29.87 in 0.8 mi SE 4.6 mph - N/A   Mist
7:48 AM 63.0 °F 61.0 °F 93% 29.87 in 0.5 mi SSE 3.5 mph - N/A Fog Fog
7:55 AM 63.0 °F 61.0 °F 93% 29.87 in 0.8 mi South 3.5 mph - N/A   Scattered Clouds
8:07 AM 64.0 °F 62.1 °F 93% 29.88 in 10.0 mi South 4.6 mph - N/A   Scattered Clouds
8:55 AM 68.0 °F 63.0 °F 84% 29.88 in 10.0 mi SW 11.5 mph - N/A   Scattered Clouds
9:55 AM 73.0 °F 62.1 °F 68% 29.86 in 10.0 mi SW 17.3 mph - N/A   Partly Cloudy
10:55 AM 73.9 °F 62.1 °F 66% 29.86 in 10.0 mi SSW 18.4 mph 27.6 mph N/A   Scattered Clouds
11:55 AM 75.9 °F 55.9 °F 50% 29.86 in 10.0 mi SW 25.3 mph 31.1 mph N/A   Scattered Clouds
12:55 PM 73.9 °F 51.1 °F 45% 29.87 in 10.0 mi WSW 24.2 mph 34.5 mph N/A   Partly Cloudy
1:55 PM 73.0 °F 51.1 °F 46% 29.88 in 10.0 mi West 24.2 mph 31.1 mph N/A   Partly Cloudy
2:55 PM 72.0 °F 52.0 °F 49% 29.90 in 10.0 mi West 19.6 mph 32.2 mph N/A   Partly Cloudy
3:55 PM 72.0 °F 53.1 °F 51% 29.89 in 10.0 mi West 20.7 mph 28.8 mph N/A   Partly Cloudy
4:55 PM 70.0 °F 53.1 °F 55% 29.91 in 10.0 mi West 21.9 mph 26.5 mph N/A   Scattered Clouds
5:55 PM 68.0 °F 53.1 °F 59% 29.93 in 10.0 mi West 17.3 mph 23.0 mph N/A   Scattered Clouds
6:55 PM 66.0 °F 53.1 °F 63% 29.94 in 10.0 mi West 15.0 mph - N/A   Mostly Cloudy
7:55 PM 64.0 °F 52.0 °F 65% 29.96 in 10.0 mi West 11.5 mph - N/A   Mostly Cloudy
8:55 PM 63.0 °F 52.0 °F 67% 29.97 in 10.0 mi WNW 10.4 mph - N/A   Overcast
9:19 PM 62.1 °F 52.0 °F 70% 29.98 in 10.0 mi West 12.7 mph 23.0 mph 0.00 in   Overcast
9:30 PM 62.1 °F 51.1 °F 67% 29.98 in 10.0 mi West 15.0 mph - 0.00 in   Overcast
9:55 PM 62.6 °F 51.8 °F 68% 29.98 in 10.0 mi WNW 15.0 mph 21.9 mph N/A   Overcast
10:55 PM 60.1 °F 50.0 °F 69% 29.99 in 10.0 mi WNW 17.3 mph 23.0 mph N/A   Overcast
11:40 PM 59.0 °F 50.0 °F 72% 30.01 in 10.0 mi WNW 11.5 mph - N/A   Overcast
11:55 PM 57.0 °F 50.0 °F 77% 30.01 in 10.0 mi West 15.0 mph 31.1 mph N/A   Overcast